STARLINK-5800 (56041 NORAD) Tracking and Keplerian Element Data

This shows tracking and keplerian element data for the satellite.

Feedback or suggestion? Click here.




ElementValue
Catalog56041
NameSTARLINK-5800
Epoch Orbit720
Epoch Day127.16858707
Epoch Year2023
RAAN291.5277
Inclination42.9993
Eccentricity0.0002038
Argument of Perigee282.1013
Mean Anonmoly77.9626
Mean Motion15.71391874
Decay Rate9.644E-05
L11 56041U 23042BH 23127.16858707 .00009644 00000+0 76790-4 0 9999
L22 56041 42.9993 291.5277 0002038 282.1013 77.9626 15.71391874 7209



Live tracking and technical data element details for STARLINK-5800 (NORAD 56041). STARLINK-5800 can be tracked NOW for your location showing map with azimuth and elevation plus other details from your city location.







IsCatalogInMostPopularTable: catalog: 56041, numindb: -1

Insert: records affected: 1


GetName: 56041 STARLINK-5800

Hit Count: inserted at: Sat, 03 Jun 2023 18:23:27 GMT